Regional Weather Roundup
Issued by NWS

Home | Current Version | Previous Version | Graphics & Text | Print | Product List | Glossary On
Versions: 1 2 3 4 5 6 7 8 9 10 11 12 13 14 15 16 17 18 19 20 21 22 23 24 25 26 27 28 29 30 31 32 33 34 35 36 37 38 39 40 41 42 43 44 45 46 47 48 49 50
674
ASUS43 KFSD 032110
RWRSD

WEATHER ROUNDUP FOR SOUTH DAKOTA
NATIONAL WEATHER SERVICE SIOUX FALLS SD
300 PM CST SAT DEC 03 2016

NOTE: "FAIR" INDICATES FEW OR NO CLOUDS BELOW 12,000 FEET WITH NO
SIGNIFICANT WEATHER AND/OR OBSTRUCTIONS TO VISIBILITY.


SDZ001>005-009-010-012>017-032200-
NORTHWEST AND NORTH CENTRAL SOUTH DAKOTA

CITY           SKY/WX    TMP DP  RH WIND       PRES   REMARKS
BUFFALO          N/A     37  28  70 W13       29.76F
FAITH            N/A     27  24  89 SW8       29.86S WCI  19
MOBRIDGE       SUNNY     37  29  72 S8        29.87S
$$

SDZ012>016-024>037-041>051-057-063-072>074-032200-
SOUTHWEST AND SOUTH CENTRAL SOUTH DAKOTA

CITY           SKY/WX    TMP DP  RH WIND       PRES   REMARKS
RAPID CTY ARPT CLOUDY    42  23  46 NW15      29.88R
PIERRE         SUNNY     38  27  64 SW8       29.90F
CUSTER         CLOUDY    30  17  58 NW15G29   29.85R WCI  19
PHILIP         SUNNY     39  23  52 NW6       29.89S
PINE RIDGE     SUNNY     39  18  42 W12       29.90S
SPEARFISH      FAIR      37  23  56 W16       29.86S
WINNER         FAIR      49  25  39 SW7       29.91F
$$

SDZ004>011-016>023-039-040-032200-
NORTHEAST SOUTH DAKOTA

CITY           SKY/WX    TMP DP  RH WIND       PRES   REMARKS
ABERDEEN       PTSUNNY   35  31  85 S17G24    29.98F WCI  25
WATERTOWN      LGT SNOW  33  30  88 S12       30.02F FOG     WCI  24
BROOKINGS      LGT SNOW  34  30  86 S13       30.06F VSB 1   WCI  25
SISSETON         N/A     33  28  81 S17G23    30.04F WCI  22
$$

SDZ017-020-022-023-036>040-048>070-032200-
SOUTHEAST SOUTH DAKOTA

CITY           SKY/WX    TMP DP  RH WIND       PRES   REMARKS
SIOUX FALLS    FLURRIES  35  33  92 S15       30.11F WCI  25
HURON          CLOUDY    36  34  92 SE15      30.00F
CHAMBERLAIN    SUNNY     40  35  83 SE13      29.94F
MITCHELL       CLOUDY    35  34  96 SE20      30.03F WCI  24
YANKTON        CLOUDY    37  30  75 SE15      30.09F
$$

ABBREVIATIONS USED IN REMARKS
   TC - TEMPERATURE IN CELSIUS
  WCI - WIND CHILL INDEX
   HX - HEAT INDEX
  VSB - VISIBILITY





USA.gov is the U.S. government's official web portal to all federal, state and local government web resources and services.